Tracking 29528 objects as of 14-Sep-2024
HD Live streaming from Space Station
objects crossing your sky now

STARLINK-1146

Track STARLINK-1146 now!
10-day predictions
STARLINK-1146 is classified as:


NORAD ID: 45094
Int'l Code: 2020-006BC
Perigee: 553.8 km
Apogee: 554.8 km
Inclination: 53.1 °
Period: 95.6 minutes
Semi major axis: 6925 km
RCS: Unknown
Launch date: January 29, 2020
Source: United States (US)
Launch site: AIR FORCE EASTERN TEST RANGE (AFETR)
Your satellite tracking list
Your tracking list is empty




NASA's NSSDC Master Catalog

Two Line Element Set (TLE):
1 45094U 20006BC  24258.14553935  .00004900  00000-0  34750-3 0  9991
2 45094  53.0520 157.6950 0000763 108.5819 251.5253 15.06412831255758
Source of the keplerian elements: AFSPC